Regional Weather Roundup
Issued by NWS

Home | Current Version | Previous Version | Text Only | Print | Product List | Glossary Off
Versions: 1 2 3 4 5 6 7 8 9 10 11 12 13 14 15 16 17 18 19 20 21 22 23 24 25 26 27 28 29 30 31 32 33 34 35 36 37 38 39 40 41 42 43 44 45 46 47 48 49 50

591
ASUS43 KOAX 242202
RWRNE

WEATHER ROUNDUP FOR NEBRASKA
NATIONAL WEATHER SERVICE OMAHA NE
500 PM CDT WED MAY 24 2017

NOTES: SATELLITE DATA IS BEING USED TO AUGMENT CLOUD COVER ABOVE
       12000 FEET.
       "FAIR" INDICATES FEW OR NO CLOUDS BELOW 12,000 FEET WITH NO
       SIGNIFICANT WEATHER AND/OR OBSTRUCTIONS TO VISIBILITY.

  * THESE STATIONS DO NOT REPORT WEATHER SUCH AS RAIN...SNOW OR FOG.

NEZ001>004-019>022-054>056-242300-
NEBRASKA PANHANDLE

CITY           SKY/WX    TMP DP  RH WIND       PRES   REMARKS
SCOTTSBLUFF    SUNNY     81  45  28 SE14      29.50F
ALLIANCE       SUNNY     77  47  34 S18       29.52F
CHADRON        SUNNY     80  48  32 S17       29.44F
GORDON         FAIR      76  43  31 S18       29.51F
KIMBALL        PTSUNNY   80  37  20 SW13      29.58F
SIDNEY         SUNNY     76  48  37 S15G21    29.58F
$$

NEZ057>060-069>072-079>082-242300-
SOUTHWEST NEBRASKA

CITY           SKY/WX    TMP DP  RH WIND       PRES   REMARKS
NORTH PLATTE   SUNNY     70  43  37 S14G21    29.62F
IMPERIAL       SUNNY     73  44  35 S14G26    29.60F
LEXINGTON      SUNNY     67  43  41 S12       29.67F
MCCOOK         SUNNY     73  43  33 S14G20    29.64F
$$

NEZ005>010-023>029-035>040-094-242300-
NORTH CENTRAL NEBRASKA

CITY           SKY/WX    TMP DP  RH WIND       PRES   REMARKS
VALENTINE      SUNNY     72  34  24 S13G24    29.58F
AINSWORTH      SUNNY     67  42  39 S9        29.62F
BROKEN BOW     SUNNY     66  42  41 S10       29.65F
ORD            SUNNY     65  41  41 S10G20    29.66F
$$

NEZ041-046>049-061>064-073>077-083>087-242300-
SOUTH CENTRAL NEBRASKA

CITY           SKY/WX    TMP DP  RH WIND       PRES   REMARKS
GRAND ISLAND   SUNNY     65  43  44 SW7       29.70F
AURORA         MOSUNNY   65  41  41 S5        29.69F
HASTINGS       SUNNY     65  42  43 S7        29.71F
HEBRON         PTSUNNY   67  45  45 W6        29.71F
HOLDREGE       SUNNY     65  38  37 SW6G17    29.69F
KEARNEY *      SUNNY     64  39  39 SW6       29.69F
$$

NEZ011>018-030>034-042>045-242300-
NORTHEAST NEBRASKA

CITY           SKY/WX    TMP DP  RH WIND       PRES   REMARKS
NORFOLK        PTSUNNY   65  41  41 VRB3      29.68F
ALBION         MOSUNNY   67  40  37 SE5       29.68F
BLAIR          PTSUNNY   65  43  43 CALM      29.69S
FREMONT        PTSUNNY   64  41  43 E3        29.70S
TEKAMAH        CLOUDY    65  44  46 VRB5      29.69S
WAYNE          MOSUNNY   67  43  42 E7        29.69S
$$

NEZ050>053-065>068-078-088>093-242300-
SOUTHEAST NEBRASKA

CITY           SKY/WX    TMP DP  RH WIND       PRES   REMARKS
LINCOLN        MOSUNNY   67  42  40 CALM      29.70F
OMAHA EPPLEY   PTSUNNY   67  43  41 N3        29.69S
BEATRICE       CLOUDY    66  44  44 N6        29.70F
FALLS CITY     PTSUNNY   65  44  46 NW7       29.68S
NEBRASKA CITY  MOSUNNY   67  37  33 N3        29.69S
$$

NEZ044-045-051>053-067-242300-
OMAHA AREA

CITY           SKY/WX    TMP DP  RH WIND       PRES   REMARKS
OMAHA EPPLEY   PTSUNNY   67  43  41 N3        29.69S
BLAIR          PTSUNNY   65  43  43 CALM      29.69S
FREMONT        PTSUNNY   64  41  43 E3        29.70S
OFFUTT AFB     PTSUNNY   66  45  46 NW6       29.68F
WAHOO          MOCLDY    67  41  39 NE6       29.69S
$$




USA.gov is the U.S. government's official web portal to all federal, state and local government web resources and services.